| time (UTC) | temp F | wind direction | speed knots | gust knots | rain 1hr in | rain 24hr in | rain mn in | humidity % | barometer mb |
| 20260506073327 | 30 | 72 | 1.7 | 2.6 | 0.00 | 0.00 | 0.00 | 76 | 1013.7 |
| 20260506072824 | 30 | 64 | 1.7 | 1.7 | 0.00 | 0.00 | 0.00 | 76 | 1013.8 |
| 20260506072321 | 30 | 69 | 1.7 | 2.6 | 0.00 | 0.00 | 0.00 | 76 | 1013.8 |
| 20260506071819 | 30 | 71 | 1.7 | 2.6 | 0.00 | 0.00 | 0.00 | 77 | 1013.8 |
| 20260506071317 | 30 | 59 | 1.7 | 1.7 | 0.00 | 0.00 | 0.00 | 76 | 1013.7 |
| 20260506070813 | 30 | 78 | 0.9 | 1.7 | 0.00 | 0.00 | 0.00 | 76 | 1013.8 |
| 20260506070310 | 30 | 65 | 0.9 | 1.7 | 0.00 | 0.00 | 0.00 | 76 | 1013.8 |
| 20260506062248 | 33 | 57 | 1.7 | 1.7 | 0.00 | 0.00 | 0.00 | 70 | 1013.8 |
| 20260506061743 | 33 | 65 | 1.7 | 1.7 | 0.00 | 0.00 | 0.00 | 69 | 1013.9 |
| 20260506061241 | 33 | 69 | 0.9 | 1.7 | 0.00 | 0.00 | 0.00 | 68 | 1014.0 |
| 20260506060739 | 33 | 55 | 0.0 | 1.7 | 0.00 | 0.00 | 0.00 | 68 | 1014.0 |
| 20260506060236 | 33 | 70 | 0.0 | 1.7 | 0.00 | 0.00 | 0.00 | 68 | 1013.9 |
| 20260506051208 | 37 | 44 | 0.9 | 2.6 | 0.00 | 0.00 | 0.00 | 60 | 1013.2 |
| 20260506050707 | 37 | 44 | 1.7 | 1.7 | 0.00 | 0.00 | 0.00 | 60 | 1013.2 |
| 20260506050203 | 37 | 34 | 1.7 | 2.6 | 0.00 | 0.00 | 0.00 | 61 | 1013.2 |
| 20260506044649 | 37 | 40 | 1.7 | 2.6 | 0.00 | 0.00 | 0.00 | 61 | 1013.1 |
| 20260506044145 | 37 | 69 | 1.7 | 1.7 | 0.00 | 0.00 | 0.00 | 60 | 1013.0 |
| 20260506043643 | 38 | 42 | 1.7 | 1.7 | 0.00 | 0.00 | 0.00 | 59 | 1013.4 |
| 20260506043140 | 38 | 72 | 0.9 | 1.7 | 0.00 | 0.00 | 0.00 | 58 | 1013.2 |
| 20260506042639 | 38 | 69 | 1.7 | 1.7 | 0.00 | 0.00 | 0.00 | 60 | 1013.2 |
| 20260506042137 | 38 | 63 | 1.7 | 1.7 | 0.00 | 0.00 | 0.00 | 58 | 1013.1 |
| 20260506041635 | 38 | 39 | 1.7 | 2.6 | 0.00 | 0.00 | 0.00 | 59 | 1013.1 |
| 20260506041131 | 38 | 317 | 0.0 | 2.6 | 0.00 | 0.00 | 0.00 | 60 | 1012.9 |
| 20260506040629 | 38 | 61 | 1.7 | 1.7 | 0.00 | 0.00 | 0.00 | 60 | 1012.9 |
| 20260506040125 | 39 | 33 | 1.7 | 1.7 | 0.00 | 0.00 | 0.00 | 57 | 1012.9 |
| 20260506035622 | 38 | 44 | 1.7 | 2.6 | 0.00 | 0.00 | 0.00 | 59 | 1013.1 |
| 20260506035119 | 39 | 39 | 0.9 | 1.7 | 0.00 | 0.00 | 0.00 | 59 | 1012.8 |
| 20260506034616 | 39 | 39 | 1.7 | 1.7 | 0.00 | 0.00 | 0.00 | 59 | 1012.7 |
| 20260506034113 | 39 | 13 | 0.0 | 1.7 | 0.00 | 0.00 | 0.00 | 57 | 1012.9 |
| 20260506033610 | 39 | 32 | 1.7 | 1.7 | 0.00 | 0.00 | 0.00 | 56 | 1012.9 |
| 20260506033107 | 39 | 24 | 1.7 | 2.6 | 0.00 | 0.00 | 0.00 | 56 | 1012.6 |
| 20260506032605 | 39 | 57 | 1.7 | 2.6 | 0.00 | 0.00 | 0.00 | 59 | 1012.8 |
| 20260506032102 | 39 | 23 | 0.9 | 1.7 | 0.00 | 0.00 | 0.00 | 59 | 1012.8 |
| 20260506031559 | 39 | 77 | 1.7 | 1.7 | 0.00 | 0.00 | 0.00 | 59 | 1012.9 |
| 20260506031055 | 39 | 36 | 1.7 | 1.7 | 0.00 | 0.00 | 0.00 | 57 | 1012.7 |
| 20260506030554 | 39 | 41 | 0.9 | 1.7 | 0.00 | 0.00 | 0.00 | 59 | 1012.7 |
| 20260506030051 | 40 | 43 | 1.7 | 1.7 | 0.00 | 0.00 | 0.00 | 57 | 1012.7 |
| 20260506025548 | 41 | 23 | 0.9 | 2.6 | 0.00 | 0.00 | 0.00 | 55 | 1012.5 |
| 20260506025044 | 41 | 31 | 1.7 | 1.7 | 0.00 | 0.00 | 0.00 | 55 | 1012.7 |
| 20260506024541 | 41 | 45 | 1.7 | 1.7 | 0.00 | 0.00 | 0.00 | 54 | 1012.5 |
| 20260506024037 | 41 | 16 | 0.9 | 2.6 | 0.00 | 0.00 | 0.00 | 54 | 1012.4 |
| 20260506023533 | 42 | 8 | 0.9 | 3.5 | 0.00 | 0.00 | 0.00 | 54 | 1012.5 |
| 20260506023031 | 42 | 327 | 3.5 | 4.3 | 0.00 | 0.00 | 0.00 | 52 | 1012.3 |
| 20260506022528 | 42 | 350 | 2.6 | 2.6 | 0.00 | 0.00 | 0.00 | 51 | 1012.3 |
| 20260506022026 | 42 | 343 | 1.7 | 4.3 | 0.00 | 0.00 | 0.00 | 52 | 1012.0 |
| 20260506021523 | 42 | 12 | 1.7 | 2.6 | 0.00 | 0.00 | 0.00 | 51 | 1012.1 |
| 20260506021020 | 42 | 22 | 1.7 | 4.3 | 0.00 | 0.00 | 0.00 | 52 | 1012.0 |
| 20260506020518 | 42 | 19 | 1.7 | 2.6 | 0.00 | 0.00 | 0.00 | 53 | 1011.8 |
| 20260506020015 | 42 | 42 | 1.7 | 3.5 | 0.00 | 0.00 | 0.00 | 53 | 1011.9 |
| 20260506015512 | 42 | 8 | 0.0 | 1.7 | 0.00 | 0.00 | 0.00 | 52 | 1011.7 |
| 20260506015009 | 43 | 22 | 0.9 | 2.6 | 0.00 | 0.00 | 0.00 | 52 | 1011.6 |
| 20260506014507 | 43 | 41 | 2.6 | 2.6 | 0.00 | 0.00 | 0.00 | 52 | 1011.6 |
| 20260506014002 | 43 | 14 | 0.9 | 2.6 | 0.00 | 0.00 | 0.00 | 50 | 1011.5 |
| 20260506013500 | 43 | 31 | 1.7 | 1.7 | 0.00 | 0.00 | 0.00 | 50 | 1011.6 |
| 20260506012956 | 44 | 29 | 1.7 | 3.5 | 0.00 | 0.00 | 0.00 | 49 | 1011.2 |
| 20260506012453 | 44 | 31 | 1.7 | 2.6 | 0.00 | 0.00 | 0.00 | 49 | 1011.2 |
| 20260506011950 | 44 | 357 | 1.7 | 2.6 | 0.00 | 0.00 | 0.00 | 48 | 1011.3 |
| 20260506011447 | 45 | 43 | 0.9 | 2.6 | 0.00 | 0.00 | 0.00 | 48 | 1011.3 |
| 20260506010944 | 45 | 25 | 1.7 | 4.3 | 0.00 | 0.00 | 0.00 | 46 | 1011.0 |
| 20260506010443 | 45 | 318 | 1.7 | 2.6 | 0.00 | 0.00 | 0.00 | 46 | 1011.2 |
| 20260506005939 | 46 | 38 | 1.7 | 3.5 | 0.00 | 0.00 | 0.00 | 46 | 1011.1 |
| 20260506005438 | 46 | 63 | 1.7 | 2.6 | 0.00 | 0.00 | 0.00 | 47 | 1011.1 |
| 20260506004938 | 46 | 32 | 1.7 | 2.6 | 0.00 | 0.00 | 0.00 | 47 | 1010.9 |
| 20260506004436 | 46 | 102 | 0.0 | 3.5 | 0.00 | 0.00 | 0.00 | 47 | 1011.0 |
| 20260506003932 | 46 | 335 | 1.7 | 2.6 | 0.00 | 0.00 | 0.00 | 45 | 1010.8 |
| 20260506003429 | 47 | 41 | 0.9 | 3.5 | 0.00 | 0.00 | 0.00 | 46 | 1010.8 |
| 20260506002925 | 47 | 31 | 1.7 | 1.7 | 0.00 | 0.00 | 0.00 | 46 | 1010.6 |
| 20260506002421 | 47 | 29 | 1.7 | 3.5 | 0.00 | 0.00 | 0.00 | 44 | 1010.4 |
| 20260506001916 | 47 | 198 | 0.0 | 2.6 | 0.00 | 0.00 | 0.00 | 44 | 1010.3 |
| 20260506001414 | 47 | 97 | 0.9 | 3.5 | 0.00 | 0.00 | 0.00 | 45 | 1010.4 |
| 20260506000911 | 47 | 26 | 1.7 | 1.7 | 0.00 | 0.00 | 0.00 | 45 | 1010.3 |
| 20260506000409 | 47 | 88 | 0.9 | 1.7 | 0.00 | 0.00 | 0.00 | 45 | 1010.5 |
| 20260505235905 | 47 | 25 | 2.6 | 3.5 | 0.00 | 0.00 | 0.00 | 44 | 1010.3 |
| 20260505235403 | 47 | 51 | 0.9 | 2.6 | 0.00 | 0.00 | 0.00 | 43 | 1010.3 |
| 20260505234900 | 48 | 6 | 1.7 | 2.6 | 0.00 | 0.00 | 0.00 | 42 | 1010.4 |
| 20260505234358 | 48 | 48 | 0.9 | 3.5 | 0.00 | 0.00 | 0.00 | 43 | 1010.2 |
| 20260505233854 | 48 | 29 | 0.9 | 2.6 | 0.00 | 0.00 | 0.00 | 43 | 1010.3 |
| 20260505233352 | 48 | 107 | 1.7 | 3.5 | 0.00 | 0.00 | 0.00 | 44 | 1010.2 |
| 20260505232849 | 48 | 10 | 1.7 | 3.5 | 0.00 | 0.00 | 0.00 | 42 | 1010.1 |
| 20260505232347 | 48 | 0 | 0.0 | 2.6 | 0.00 | 0.00 | 0.00 | 40 | 1010.3 |
| 20260505231843 | 49 | 353 | 0.0 | 2.6 | 0.00 | 0.00 | 0.00 | 41 | 1010.2 |
| 20260505231341 | 48 | 41 | 1.7 | 2.6 | 0.00 | 0.00 | 0.00 | 42 | 1010.2 |
| 20260505230839 | 48 | 254 | 0.0 | 2.6 | 0.00 | 0.00 | 0.00 | 42 | 1010.0 |
| 20260505230336 | 48 | 128 | 1.7 | 2.6 | 0.00 | 0.00 | 0.00 | 43 | 1010.0 |
| 20260505225832 | 49 | 322 | 0.0 | 3.5 | 0.00 | 0.00 | 0.00 | 41 | 1010.1 |
| 20260505225330 | 48 | 308 | 0.0 | 3.5 | 0.00 | 0.00 | 0.00 | 43 | 1010.3 |
| 20260505224825 | 49 | 11 | 1.7 | 7.0 | 0.00 | 0.00 | 0.00 | 41 | 1010.2 |
| 20260505224323 | 49 | 48 | 0.9 | 2.6 | 0.00 | 0.00 | 0.00 | 42 | 1010.2 |
| 20260505223820 | 49 | 14 | 0.9 | 2.6 | 0.00 | 0.00 | 0.00 | 42 | 1010.1 |
| 20260505223317 | 49 | 160 | 0.9 | 3.5 | 0.00 | 0.00 | 0.00 | 42 | 1010.1 |
| 20260505222812 | 49 | 51 | 0.9 | 4.3 | 0.00 | 0.00 | 0.00 | 39 | 1010.0 |
| 20260505222309 | 49 | 77 | 0.9 | 2.6 | 0.00 | 0.00 | 0.00 | 41 | 1010.1 |
| 20260505221806 | 49 | 33 | 1.7 | 3.5 | 0.00 | 0.00 | 0.00 | 40 | 1010.1 |
| 20260505221302 | 50 | 350 | 1.7 | 1.7 | 0.00 | 0.00 | 0.00 | 41 | 1010.0 |
| 20260505220800 | 51 | 10 | 0.0 | 2.6 | 0.00 | 0.00 | 0.00 | 39 | 1010.0 |
| 20260505220257 | 51 | 213 | 1.7 | 5.2 | 0.00 | 0.00 | 0.00 | 41 | 1010.1 |
| 20260505215755 | 49 | 17 | 1.7 | 3.5 | 0.00 | 0.00 | 0.00 | 42 | 1010.2 |
| 20260505215252 | 49 | 296 | 1.7 | 3.5 | 0.00 | 0.00 | 0.00 | 42 | 1010.0 |
| 20260505214750 | 49 | 10 | 0.0 | 3.5 | 0.00 | 0.00 | 0.00 | 41 | 1010.3 |
| 20260505214247 | 49 | 344 | 1.7 | 3.5 | 0.00 | 0.00 | 0.00 | 40 | 1010.4 |
| 20260505213744 | 49 | 25 | 2.6 | 3.5 | 0.00 | 0.00 | 0.00 | 41 | 1010.3 |
| 20260505213242 | 49 | 27 | 2.6 | 2.6 | 0.00 | 0.00 | 0.00 | 41 | 1010.3 |
| 20260505212737 | 50 | 27 | 1.7 | 2.6 | 0.00 | 0.00 | 0.00 | 40 | 1010.2 |
| 20260505212235 | 50 | 23 | 0.0 | 1.7 | 0.00 | 0.00 | 0.00 | 41 | 1010.2 |
| 20260505211732 | 49 | 39 | 0.0 | 2.6 | 0.00 | 0.00 | 0.00 | 42 | 1010.2 |
| 20260505211229 | 50 | 22 | 0.0 | 2.6 | 0.00 | 0.00 | 0.00 | 41 | 1010.3 |
| 20260505210725 | 50 | 340 | 1.7 | 3.5 | 0.00 | 0.00 | 0.00 | 39 | 1010.3 |
| 20260505210222 | 49 | 359 | 1.7 | 1.7 | 0.00 | 0.00 | 0.00 | 40 | 1010.5 |
| 20260505205720 | 50 | 24 | 1.7 | 4.3 | 0.00 | 0.00 | 0.00 | 39 | 1010.4 |
| 20260505205218 | 51 | 19 | 2.6 | 2.6 | 0.00 | 0.00 | 0.00 | 40 | 1010.4 |
| 20260505204709 | 51 | 344 | 1.7 | 2.6 | 0.00 | 0.00 | 0.00 | 41 | 1010.4 |
| 20260505204207 | 51 | 149 | 1.7 | 3.5 | 0.00 | 0.00 | 0.00 | 39 | 1010.3 |
| 20260505203704 | 52 | 359 | 0.9 | 3.5 | 0.00 | 0.00 | 0.00 | 41 | 1010.5 |
| 20260505203200 | 51 | 316 | 1.7 | 3.5 | 0.00 | 0.00 | 0.00 | 40 | 1010.4 |
| 20260505202655 | 54 | 248 | 1.7 | 5.2 | 0.00 | 0.00 | 0.00 | 39 | 1010.6 |
| 20260505202153 | 50 | 345 | 0.0 | 2.6 | 0.00 | 0.00 | 0.00 | 41 | 1010.5 |
| 20260505201649 | 52 | 330 | 1.7 | 5.2 | 0.00 | 0.00 | 0.00 | 38 | 1010.6 |
| 20260505201147 | 51 | 346 | 3.5 | 5.2 | 0.00 | 0.00 | 0.00 | 41 | 1010.8 |
| 20260505200645 | 50 | 196 | 0.0 | 4.3 | 0.00 | 0.00 | 0.00 | 40 | 1010.3 |
| 20260505200141 | 50 | 0 | 0.9 | 4.3 | 0.00 | 0.00 | 0.00 | 40 | 1010.5 |
| 20260505195637 | 50 | 28 | 1.7 | 2.6 | 0.00 | 0.00 | 0.00 | 41 | 1010.5 |
| 20260505195134 | 49 | 89 | 0.9 | 2.6 | 0.00 | 0.00 | 0.00 | 40 | 1010.5 |
| 20260505194632 | 50 | 352 | 1.7 | 3.5 | 0.00 | 0.00 | 0.00 | 39 | 1010.4 |
| 20260505194128 | 51 | 59 | 0.0 | 3.5 | 0.00 | 0.00 | 0.00 | 39 | 1010.3 |
| 20260505193625 | 50 | 335 | 1.7 | 4.3 | 0.00 | 0.00 | 0.00 | 40 | 1010.2 |
| 20260505193122 | 49 | 43 | 0.9 | 2.6 | 0.00 | 0.00 | 0.00 | 39 | 1010.6 |
| 20260505192621 | 50 | 330 | 0.9 | 2.6 | 0.00 | 0.00 | 0.00 | 41 | 1010.4 |
| 20260505192117 | 50 | 59 | 1.7 | 1.7 | 0.00 | 0.00 | 0.00 | 42 | 1010.6 |
| 20260505191616 | 49 | 341 | 1.7 | 2.6 | 0.00 | 0.00 | 0.00 | 41 | 1010.6 |
| 20260505191113 | 49 | 18 | 0.0 | 4.3 | 0.00 | 0.00 | 0.00 | 43 | 1010.4 |
| 20260505190608 | 49 | 342 | 1.7 | 6.1 | 0.00 | 0.00 | 0.00 | 42 | 1010.5 |
| 20260505190103 | 50 | 7 | 1.7 | 3.5 | 0.00 | 0.00 | 0.00 | 40 | 1010.5 |
| 20260505185600 | 49 | 0 | 0.0 | 3.5 | 0.00 | 0.00 | 0.00 | 40 | 1010.5 |
| 20260505185057 | 50 | 48 | 2.6 | 4.3 | 0.00 | 0.00 | 0.00 | 42 | 1010.5 |
| 20260505184554 | 49 | 12 | 2.6 | 3.5 | 0.00 | 0.00 | 0.00 | 40 | 1010.6 |
| 20260505184051 | 49 | 310 | 2.6 | 3.5 | 0.00 | 0.00 | 0.00 | 40 | 1010.5 |
| 20260505183547 | 49 | 347 | 0.0 | 2.6 | 0.00 | 0.00 | 0.00 | 41 | 1010.6 |
| 20260505183045 | 49 | 0 | 1.7 | 3.5 | 0.00 | 0.00 | 0.00 | 41 | 1010.5 |
| 20260505182541 | 49 | 121 | 1.7 | 3.5 | 0.00 | 0.00 | 0.00 | 42 | 1010.6 |
| 20260505182037 | 49 | 126 | 0.9 | 4.3 | 0.00 | 0.00 | 0.00 | 44 | 1010.4 |
| 20260505181534 | 48 | 350 | 1.7 | 3.5 | 0.00 | 0.00 | 0.00 | 39 | 1010.5 |
| 20260505181032 | 48 | 155 | 2.6 | 3.5 | 0.00 | 0.00 | 0.00 | 44 | 1010.4 |
| 20260505180527 | 49 | 166 | 1.7 | 2.6 | 0.00 | 0.00 | 0.00 | 42 | 1010.3 |
| 20260505180026 | 48 | 20 | 2.6 | 6.1 | 0.00 | 0.00 | 0.00 | 43 | 1010.6 |
| 20260505175526 | 48 | 348 | 0.9 | 3.5 | 0.00 | 0.00 | 0.00 | 41 | 1010.5 |
| 20260505175023 | 48 | 131 | 3.5 | 3.5 | 0.00 | 0.00 | 0.00 | 40 | 1010.5 |
| 20260505174520 | 49 | 21 | 0.9 | 2.6 | 0.00 | 0.00 | 0.00 | 40 | 1010.5 |
| 20260505174016 | 50 | 11 | 1.7 | 2.6 | 0.00 | 0.00 | 0.00 | 43 | 1010.8 |
| 20260505173513 | 48 | 321 | 0.0 | 7.0 | 0.00 | 0.00 | 0.00 | 42 | 1010.5 |
| 20260505173010 | 48 | 14 | 2.6 | 5.2 | 0.00 | 0.00 | 0.00 | 41 | 1010.6 |
| 20260505172508 | 49 | 339 | 1.7 | 3.5 | 0.00 | 0.00 | 0.00 | 39 | 1010.5 |
| 20260505172008 | 49 | 331 | 1.7 | 2.6 | 0.00 | 0.00 | 0.00 | 39 | 1010.4 |
| 20260505171504 | 48 | 17 | 0.9 | 2.6 | 0.00 | 0.00 | 0.00 | 41 | 1010.6 |
| 20260505171001 | 50 | 36 | 0.0 | 4.3 | 0.00 | 0.00 | 0.00 | 39 | 1010.5 |
| 20260505170458 | 50 | 33 | 2.6 | 4.3 | 0.00 | 0.00 | 0.00 | 40 | 1010.6 |
| 20260505165953 | 47 | 73 | 2.6 | 5.2 | 0.00 | 0.00 | 0.00 | 41 | 1010.8 |
| 20260505165449 | 47 | 99 | 0.9 | 2.6 | 0.00 | 0.00 | 0.00 | 42 | 1010.5 |
| 20260505164945 | 48 | 348 | 2.6 | 3.5 | 0.00 | 0.00 | 0.00 | 42 | 1010.8 |
| 20260505164442 | 47 | 185 | 0.9 | 2.6 | 0.00 | 0.00 | 0.00 | 44 | 1011.0 |
| 20260505163940 | 47 | 126 | 0.0 | 4.3 | 0.00 | 0.00 | 0.00 | 41 | 1010.4 |
| 20260505163438 | 47 | 342 | 1.7 | 3.5 | 0.00 | 0.00 | 0.00 | 41 | 1010.5 |
| 20260505162937 | 50 | 127 | 0.0 | 4.3 | 0.00 | 0.00 | 0.00 | 39 | 1010.8 |
| 20260505162433 | 49 | 176 | 1.7 | 3.5 | 0.00 | 0.00 | 0.00 | 43 | 1010.9 |
| 20260505161930 | 47 | 187 | 0.0 | 3.5 | 0.00 | 0.00 | 0.00 | 45 | 1010.6 |
| 20260505161426 | 49 | 86 | 2.6 | 3.5 | 0.00 | 0.00 | 0.00 | 42 | 1010.6 |
| 20260505160924 | 48 | 275 | 0.0 | 4.3 | 0.00 | 0.00 | 0.00 | 40 | 1010.5 |
| 20260505160422 | 46 | 60 | 2.6 | 3.5 | 0.00 | 0.00 | 0.00 | 43 | 1010.8 |
| 20260505152858 | 46 | 280 | 0.0 | 2.6 | 0.00 | 0.00 | 0.00 | 42 | 1010.8 |
| 20260505152355 | 47 | 257 | 0.0 | 2.6 | 0.00 | 0.00 | 0.00 | 42 | 1010.5 |
| 20260505151855 | 47 | 326 | 1.7 | 3.5 | 0.00 | 0.00 | 0.00 | 43 | 1010.4 |
| 20260505151352 | 48 | 13 | 1.7 | 2.6 | 0.00 | 0.00 | 0.00 | 45 | 1010.5 |
| 20260505150849 | 48 | 14 | 1.7 | 3.5 | 0.00 | 0.00 | 0.00 | 45 | 1010.5 |
| 20260505150346 | 47 | 11 | 1.7 | 4.3 | 0.00 | 0.00 | 0.00 | 44 | 1010.5 |
| 20260505140310 | 43 | 1 | 2.6 | 3.5 | 0.00 | 0.00 | 0.00 | 48 | 1010.1 |
| 20260505130234 | 41 | 300 | 1.7 | 2.6 | 0.00 | 0.00 | 0.00 | 49 | 1009.4 |
| 20260505124724 | 40 | 354 | 1.7 | 5.2 | 0.00 | 0.00 | 0.00 | 51 | 1009.3 |
| 20260505124221 | 40 | 314 | 1.7 | 3.5 | 0.00 | 0.00 | 0.00 | 52 | 1009.2 |
| 20260505123717 | 41 | 24 | 1.7 | 3.5 | 0.00 | 0.00 | 0.00 | 54 | 1009.2 |
| 20260505123214 | 40 | 35 | 3.5 | 4.3 | 0.00 | 0.00 | 0.00 | 52 | 1009.1 |
| 20260505122710 | 40 | 358 | 1.7 | 3.5 | 0.00 | 0.00 | 0.00 | 54 | 1009.2 |
| 20260505122208 | 39 | 11 | 1.7 | 2.6 | 0.00 | 0.00 | 0.00 | 57 | 1009.0 |
| 20260505121704 | 39 | 37 | 2.6 | 3.5 | 0.00 | 0.00 | 0.00 | 58 | 1009.2 |
| 20260505121201 | 38 | 30 | 1.7 | 2.6 | 0.00 | 0.00 | 0.00 | 60 | 1009.0 |
| 20260505120657 | 37 | 31 | 1.7 | 2.6 | 0.00 | 0.00 | 0.00 | 62 | 1008.8 |
| 20260505120154 | 37 | 2 | 1.7 | 1.7 | 0.00 | 0.00 | 0.00 | 62 | 1008.6 |
| 20260505115653 | 37 | 343 | 0.0 | 2.6 | 0.00 | 0.00 | 0.00 | 64 | 1008.7 |
| 20260505115151 | 37 | 13 | 0.9 | 2.6 | 0.00 | 0.00 | 0.00 | 65 | 1008.4 |
| 20260505114648 | 36 | 335 | 0.9 | 2.6 | 0.00 | 0.00 | 0.00 | 66 | 1008.5 |
| 20260505114144 | 36 | 26 | 1.7 | 2.6 | 0.00 | 0.00 | 0.00 | 65 | 1008.5 |
| 20260505113640 | 36 | 31 | 1.7 | 2.6 | 0.00 | 0.00 | 0.00 | 65 | 1008.5 |
| 20260505113137 | 36 | 5 | 1.7 | 2.6 | 0.00 | 0.00 | 0.00 | 66 | 1008.4 |
| 20260505112633 | 36 | 26 | 1.7 | 2.6 | 0.00 | 0.00 | 0.00 | 66 | 1008.3 |
| 20260505112132 | 36 | 35 | 2.6 | 2.6 | 0.00 | 0.00 | 0.00 | 66 | 1008.2 |
| 20260505111631 | 36 | 32 | 2.6 | 2.6 | 0.00 | 0.00 | 0.00 | 68 | 1008.3 |
| 20260505111127 | 36 | 341 | 2.6 | 2.6 | 0.00 | 0.00 | 0.00 | 69 | 1008.1 |
| 20260505110624 | 36 | 0 | 1.7 | 2.6 | 0.00 | 0.00 | 0.00 | 70 | 1008.0 |
| 20260505110121 | 36 | 85 | 0.0 | 2.6 | 0.00 | 0.00 | 0.00 | 69 | 1008.1 |
| 20260505102056 | 37 | 37 | 2.6 | 2.6 | 0.00 | 0.00 | 0.00 | 69 | 1007.8 |
| 20260505101555 | 37 | 24 | 0.0 | 3.5 | 0.00 | 0.00 | 0.00 | 67 | 1007.9 |
| 20260505101051 | 37 | 13 | 0.9 | 1.7 | 0.00 | 0.00 | 0.00 | 67 | 1007.8 |
| 20260505100548 | 37 | 11 | 1.7 | 1.7 | 0.00 | 0.00 | 0.00 | 67 | 1008.0 |
| 20260505100045 | 37 | 66 | 0.9 | 1.7 | 0.00 | 0.00 | 0.00 | 67 | 1007.9 |
| 20260505095541 | 37 | 327 | 0.0 | 1.7 | 0.00 | 0.00 | 0.00 | 69 | 1007.9 |
| 20260505095037 | 37 | 42 | 1.7 | 1.7 | 0.00 | 0.00 | 0.00 | 67 | 1007.8 |
| 20260505094534 | 37 | 49 | 0.0 | 1.7 | 0.00 | 0.00 | 0.00 | 68 | 1008.0 |
| 20260505094030 | 38 | 33 | 0.0 | 2.6 | 0.00 | 0.00 | 0.00 | 66 | 1007.8 |
| 20260505093527 | 38 | 74 | 0.0 | 1.7 | 0.00 | 0.00 | 0.00 | 66 | 1007.9 |
| 20260505093024 | 38 | 81 | 1.7 | 1.7 | 0.00 | 0.00 | 0.00 | 66 | 1007.8 |
| 20260505092521 | 38 | 320 | 0.9 | 1.7 | 0.00 | 0.00 | 0.00 | 65 | 1007.7 |
| 20260505092020 | 38 | 327 | 0.9 | 1.7 | 0.00 | 0.00 | 0.00 | 65 | 1007.7 |
| 20260505091516 | 38 | 37 | 0.9 | 1.7 | 0.00 | 0.00 | 0.00 | 66 | 1007.7 |
| 20260505091014 | 38 | 72 | 0.9 | 3.5 | 0.00 | 0.00 | 0.00 | 65 | 1007.5 |
| 20260505090512 | 39 | 35 | 1.7 | 1.7 | 0.00 | 0.00 | 0.00 | 64 | 1007.4 |
| 20260505090010 | 39 | 52 | 1.7 | 2.6 | 0.00 | 0.00 | 0.00 | 63 | 1007.3 |
| 20260505085508 | 39 | 64 | 1.7 | 2.6 | 0.00 | 0.00 | 0.00 | 64 | 1007.5 |
| 20260505085006 | 39 | 32 | 0.0 | 2.6 | 0.00 | 0.00 | 0.00 | 62 | 1007.2 |
| 20260505084503 | 39 | 74 | 3.5 | 3.5 | 0.00 | 0.00 | 0.00 | 62 | 1007.2 |
| 20260505084001 | 39 | 181 | 0.9 | 3.5 | 0.00 | 0.00 | 0.00 | 62 | 1007.1 |
| 20260505083458 | 39 | 34 | 1.7 | 2.6 | 0.00 | 0.00 | 0.00 | 63 | 1007.2 |
| 20260505082954 | 39 | 60 | 0.0 | 0.9 | 0.00 | 0.00 | 0.00 | 62 | 1007.0 |
| 20260505082450 | 39 | 55 | 0.9 | 1.7 | 0.00 | 0.00 | 0.00 | 62 | 1007.0 |
| 20260505081947 | 39 | 45 | 0.9 | 1.7 | 0.00 | 0.00 | 0.00 | 61 | 1006.6 |
| 20260505081444 | 40 | 78 | 0.9 | 2.6 | 0.00 | 0.00 | 0.00 | 62 | 1006.5 |
| 20260505080940 | 40 | 61 | 0.9 | 1.7 | 0.00 | 0.00 | 0.00 | 60 | 1006.5 |
| 20260505080436 | 40 | 27 | 1.7 | 3.5 | 0.00 | 0.00 | 0.00 | 60 | 1006.4 |
| 20260505075932 | 40 | 27 | 0.9 | 2.6 | 0.00 | 0.00 | 0.00 | 60 | 1006.5 |
| 20260505075429 | 40 | 321 | 1.7 | 4.3 | 0.00 | 0.00 | 0.00 | 59 | 1006.6 |
| 20260505074927 | 41 | 70 | 0.0 | 1.7 | 0.00 | 0.00 | 0.00 | 59 | 1006.7 |